Location: Newark
(48.8656°N, 2.3211°E)
Time: 19:59:42
(UTC+00:00)

Envisat - Pass Details

Date: 17 December 2019
Orbit: 764 x 766 km, 98.1° (Epoch: 28 January)

Event Time Altitude Azimuth Distance (km) Brightness Sun altitude
Rises 05:19:11 0° 28° (NNE) 3,245 6.5 -21.7°
Reaches altitude 10° 05:22:28 10° 51° (NE) 2,312 6.0 -21.2°
Maximum altitude 05:25:30 16° 88° (E) 1,934 6.0 -20.7°
Drops below altitude 10° 05:28:32 10° 125° (SE) 2,301 6.5 -20.2°
Sets 05:31:46 0° 147° (SSE) 3,220 6.9 -19.7°
